Amsterdam, Netherlands

3:42 PM CET on December 14, 2019 (GMT +0100)
Schiphol

Weather History for EHAM - October, 2019

Change the Weather History Date:

Sunday, October 27, 2019

  Actual Average Record
Temperature  
Mean Temperature 51 °F -  
Max Temperature 56 °F 49 °F 68 °F (2005)
Min Temperature 46 °F 40 °F 28 °F (2003)
Degree Days  
Heating Degree Days 14    
Growing Degree Days 1 (Base 50)    
Moisture  
Dew Point 43 °F    
Average Humidity 74    
Maximum Humidity 100    
Minimum Humidity 54    
Precipitation  
Precipitation 0.04 in - - ()
Sea Level Pressure  
Sea Level Pressure 30.08 in    
Wind  
Wind Speed 12 mph ()    
Max Wind Speed 18 mph    
Max Gust Speed -    
Visibility 6.5 miles    
Events Rain    
Averages and records for this station are not official NWS values.
T = Trace of Precipitation, MM = Missing Value Source: Averaged Metar Reports

Daily Weather History Graph

Daily Weather History Graph

Search for Another Location

Airport or City:

Astronomy

Oct. 27, 2019 Rise Set
Actual Time 7:26 AM CET 5:22 PM CET
Civil Twilight 6:51 AM CET 5:57 PM CET
Nautical Twilight 6:11 AM CET 6:37 PM CET
Astronomical Twilight 5:32 AM CET 7:16 PM CET
Moon 5:59 AM CET (10/27) 5:34 PM CET (10/27)
Length of Visible Light 11h 05m
Length of Day
9h 55m
Waning Crescent, 1% of the Moon is Illuminated
Oct 27
Waning Crescent
Oct 28
New
Nov 4
First Quarter
Nov 12
Full
Nov 19
Last Quarter

Hourly Weather History & Observations

Time (CET) Temp. Windchill Dew Point Humidity Pressure Visibility Wind Dir Wind Speed Gust Speed Precip Events Conditions
12:00 AM 56 °F - 54 °F 93% 29.81 in 6 mi WNW 17.9 mph - - Rain Heavy Rain
12:25 AM 55.4 °F - 53.6 °F 94% 29.80 in 4.3 mi WNW 17.3 mph - N/A Rain Light Drizzle
12:55 AM 53.6 °F - 51.8 °F 94% 29.83 in 3.7 mi NW 16.1 mph - N/A   Light Drizzle
1:25 AM 51.8 °F - 50.0 °F 94% 29.86 in 3.1 mi NW 17.3 mph - N/A   Light Drizzle
1:55 AM 51.8 °F - 50.0 °F 94% 29.89 in 5.0 mi WNW 12.7 mph - N/A   Light Drizzle
2:00 AM 51 °F - 50 °F 95% 29.91 in 3 mi WNW 11.2 mph - - Rain Heavy Drizzle
2:25 AM 50.0 °F - 50.0 °F 100% 29.92 in 6.2 mi WNW 13.8 mph - N/A   Light Drizzle
2:55 AM 50.0 °F - 48.2 °F 94% 29.92 in 6.2 mi WNW 11.5 mph - N/A   Mostly Cloudy
2:25 AM 50.0 °F - 44.6 °F 82% 29.92 in 6.2 mi WNW 11.5 mph - N/A   Partly Cloudy
2:55 AM 50.0 °F - 42.8 °F 76% 29.95 in 6.2 mi WNW 11.5 mph - N/A   Partly Cloudy
3:25 AM 50.0 °F - 41.0 °F 71% 29.95 in 6.2 mi WNW 13.8 mph - N/A   Partly Cloudy
3:55 AM 50.0 °F - 41.0 °F 71% 29.98 in 6.2 mi WNW 13.8 mph - N/A   Partly Cloudy
4:00 AM 50 °F - 40 °F 58% 29.99 in 28 mi WNW 13.4 mph - -   Partly Cloudy
4:25 AM 50.0 °F - 39.2 °F 66% 29.98 in 6.2 mi WNW 11.5 mph - N/A   Partly Cloudy
5:25 AM 50.0 °F - 39.2 °F 66% 30.01 in 6.2 mi WNW 11.5 mph - N/A   Partly Cloudy
5:55 AM 50.0 °F - 39.2 °F 66% 30.01 in 6.2 mi WNW 11.5 mph - N/A   Partly Cloudy
6:25 AM 48.2 °F - 39.2 °F 71% 30.01 in 6.2 mi WNW 10.4 mph - N/A   Partly Cloudy
6:55 AM 48.2 °F - 39.2 °F 71% 30.04 in 6.2 mi West 9.2 mph - N/A   Partly Cloudy
7:00 AM 48 °F - 40 °F 64% 30.05 in 25 mi WNW 11.2 mph - -   Partly Cloudy
7:25 AM 48.2 °F - 39.2 °F 71% 30.04 in 6.2 mi West 8.1 mph - N/A   Partly Cloudy
7:55 AM 48.2 °F - 41.0 °F 76% 30.04 in 6.2 mi West 9.2 mph - N/A   Partly Cloudy
8:25 AM 50.0 °F - 41.0 °F 71% 30.06 in 6.2 mi WSW 9.2 mph - N/A   Partly Cloudy
8:55 AM 50.0 °F - 42.8 °F 76% 30.06 in 6.2 mi WSW 9.2 mph - N/A   Partly Cloudy
9:25 AM 51.8 °F - 42.8 °F 71% 30.09 in 6.2 mi West 11.5 mph - N/A   Scattered Clouds
9:55 AM 51.8 °F - 42.8 °F 71% 30.12 in 6.2 mi West 11.5 mph - N/A   Mostly Cloudy
10:00 AM 52 °F - 43 °F 64% 30.12 in 22 mi West 11.2 mph - -   Partly Cloudy
10:25 AM 51.8 °F - 44.6 °F 76% 30.12 in 6.2 mi West 13.8 mph - N/A   Scattered Clouds
10:55 AM 51.8 °F - 42.8 °F 71% 30.12 in 6.2 mi West 13.8 mph - N/A   Scattered Clouds
11:25 AM 51.8 °F - 42.8 °F 71% 30.12 in 6.2 mi West 13.8 mph - N/A   Partly Cloudy
11:55 AM 51.8 °F - 42.8 °F 71% 30.12 in 6.2 mi West 12.7 mph - N/A   Partly Cloudy
12:00 PM 53 °F - 43 °F 59% 30.15 in 25 mi West 13.4 mph - -   Partly Cloudy
12:25 PM 53.6 °F - 44.6 °F 72% 30.12 in 6.2 mi West 12.7 mph - N/A   Partly Cloudy
12:55 PM 53.6 °F - 42.8 °F 67% 30.15 in 6.2 mi WNW 16.1 mph - N/A   Partly Cloudy
1:00 PM 53 °F - 43 °F 58% 30.15 in 19 mi West 13.4 mph - -   Partly Cloudy
1:25 PM 53.6 °F - 42.8 °F 67% 30.12 in 6.2 mi West 16.1 mph - N/A   Partly Cloudy
1:55 PM 53.6 °F - 42.8 °F 67% 30.15 in 6.2 mi West 15.0 mph - N/A   Partly Cloudy
2:00 PM 53 °F - 42 °F 56% 30.16 in 22 mi West 15.7 mph - -   Partly Cloudy
2:25 PM 51.8 °F - 42.8 °F 71% 30.15 in 6.2 mi West 16.1 mph - N/A   Partly Cloudy
2:55 PM 55.4 °F - 44.6 °F 67% 30.15 in 6.2 mi West 13.8 mph - N/A   Partly Cloudy
3:00 PM 54 °F - 42 °F 54% 30.16 in 19 mi WNW 15.7 mph - -   Partly Cloudy
3:25 PM 53.6 °F - 42.8 °F 67% 30.15 in 6.2 mi WNW 13.8 mph - N/A   Partly Cloudy
3:55 PM 53.6 °F - 44.6 °F 72% 30.15 in 6.2 mi West 11.5 mph - N/A   Partly Cloudy
4:25 PM 51.8 °F - 42.8 °F 71% 30.15 in 6.2 mi West 11.5 mph - N/A   Partly Cloudy
4:55 PM 50.0 °F - 42.8 °F 76% 30.15 in 6.2 mi West 10.4 mph - N/A   Partly Cloudy
5:55 PM 50.0 °F - 42.8 °F 76% 30.18 in 6.2 mi West 9.2 mph - N/A   Partly Cloudy
6:25 PM 50.0 °F - 42.8 °F 76% 30.18 in 6.2 mi West 8.1 mph - N/A   Partly Cloudy
6:55 PM 48.2 °F - 42.8 °F 82% 30.18 in 6.2 mi West 8.1 mph - N/A   Partly Cloudy
7:25 PM 48.2 °F - 42.8 °F 82% 30.18 in 6.2 mi West 8.1 mph - N/A   Partly Cloudy
7:55 PM 48.2 °F - 42.8 °F 82% 30.18 in 6.2 mi West 9.2 mph - N/A   Partly Cloudy
8:00 PM 48 °F - 42 °F 72% 30.20 in 25 mi West 8.9 mph - -   Overcast
8:25 PM 46.4 °F 43.5 °F 41.0 °F 81% 30.18 in 6.2 mi West 5.8 mph - N/A   Partly Cloudy
8:55 PM 48.2 °F - 41.0 °F 76% 30.18 in 6.2 mi West 8.1 mph - N/A   Partly Cloudy
9:00 PM 49 °F - 41 °F 66% 30.20 in 25 mi West 8.9 mph - -   Partly Cloudy
9:25 PM 50.0 °F - 41.0 °F 71% 30.18 in 6.2 mi West 8.1 mph - N/A   Partly Cloudy
9:55 PM 51.8 °F - 42.8 °F 71% 30.18 in 6.2 mi West 8.1 mph - N/A   Partly Cloudy
10:00 PM 51 °F - 42 °F 63% 30.22 in 22 mi West 6.7 mph - - Rain Light Rain Showers
10:25 PM 50.0 °F - 41.0 °F 71% 30.21 in 6.2 mi WNW 6.9 mph - N/A   Partly Cloudy
10:55 PM 48.2 °F - 41.0 °F 76% 30.21 in 6.2 mi WNW 6.9 mph - N/A   Partly Cloudy